Location: Härggis
(46.9540°N, 8.4897°E)
Time: 03:02:44
(UTC+00:00)

DNEPR-1 R/B - Pass Details

Date: 27 May 2022
Orbit: 577 x 1344 km, 64.6° (Epoch: 26 June)

Event Time Altitude Azimuth Distance (km) Brightness Sun altitude
Exits shadow 02:08:46 13° 186° (S) 1,682 5.3 -12.2°
Maximum altitude 02:12:08 41° 118° (ESE) 886 4.4 -11.9°
Drops below altitude 10° 02:16:27 10° 49° (NE) 2,085 7.8 -11.4°
Sets 02:19:01 0° 42° (NE) 3,099 9.4 -11.1°
